Butts AAF (Fort Carson) Air Field
KFCS : now visible

Airfield :











YOU CAN JOIN US ON...

 
LOGIN :

Register | Disclaimer

   EN    FR    IT 

 









Legend :    VFR   Marginal VFR   IFR   Intensive IFR   Very Intensive IFR
Visi :
Ceiling :
>= 8 km
>= 3000ft
5 to 8 km
1000 to 3000 ft
1500m to 5 km
500 to 1000 ft
800 to 1500m
200 to 500 ft
< 800m
< 200 ft
Symbols :   Thunderstorms  Fog  Heavy snow  Heavy precipitations  Wind > 20 kt






- Airport Elevation : 5838 ft


KFCS - Butts AAF (Fort Carson) Air Field

CURRENT METAR :
  • 161058Z AUTO 34004KT 10SM CLR M00/M07 A3035 RMK AO2 SLP300 T10051071 $

EXPIRED METARs :
  • 160958Z AUTO 33006KT 10SM CLR M00/M07 A3034 RMK AO2 SLP297 T10041072 $
  • 160858Z AUTO 34006KT 10SM CLR M01/M07 A3033 RMK AO2 SLP293 T10091071 55001 $

TAF TAF KFCS
Valid from the 16 at 05:00 until the 17 at 11:00 UTC


160503Z 1605/1711 30009KT 9999 SKC QNH3032INS
BECMG 1615/1616 16012KT 9999 SKC QNH3031INS
BECMG 1700/1701 29009KT 9999 SKC QNH3025INS TX16/1621Z TN01/1611Z
KZDV FIR / North America



MET'MAP, your aeronautical weather chart ! - Copyright ORBIFLY December 2007 - Disclaimer

ORBIFLY MET'MAP TEAM :

Programming & Development : Alexandra Zaïnal
Concept & original design : Baudouin d'Aumeries
Assistance for programming : Marc-Olivier Méhu
Technical & hardware support : Manuel Goepfert

Contact : metmap@orbifly.com




SOURCES & CREDITS :

   NOAA       Earth
Advisory